IT9RID Weather Reports


Display with metric or nautical units.
time (UTC)temp
F
wind
direction
speed
MPH
gust
MPH
rain 1hr
in
rain 24hr
in
rain mn
in
humidity
%
barometer
mb
20260906083056 85 292 3.0 3.0 0.00 0.00 0.00 65 1019.7
20260906082056 84 290 0.0 3.0 0.00 0.00 0.00 66 1019.6
20260906081056 84 360 3.0 4.0 0.00 0.00 0.00 63 1019.5
20260906080056 84 213 1.0 2.0 0.00 0.00 0.00 61 1019.5
20260906075056 84 302 0.0 0.0 0.00 0.00 0.00 62 1019.5
20260906074057 82 311 0.0 0.0 0.00 0.00 0.00 66 1019.4
20260906073055 83 243 0.0 0.0 0.00 0.00 0.00 69 1019.4
20260906072055 82 242 0.0 0.0 0.00 0.00 0.00 70 1019.4
20260906071056 82 237 0.0 0.0 0.00 0.00 0.00 68 1019.4
20260906070055 81 238 0.0 0.0 0.00 0.00 0.00 65 1019.4
20260906065055 80 232 0.0 3.0 0.00 0.00 0.00 63 1019.2
20260906064055 80 222 0.0 0.0 0.00 0.00 0.00 62 1019.2
20260906063054 78 221 0.0 1.0 0.00 0.00 0.00 61 1019.2
20260906062054 77 217 0.0 0.0 0.00 0.00 0.00 61 1019.2
20260906061054 76 217 0.0 3.0 0.00 0.00 0.00 61 1019.2
20260906060054 75 214 0.0 0.0 0.00 0.00 0.00 62 1019.2
20260906055054 75 214 0.0 0.0 0.00 0.00 0.00 63 1019.1
20260906054054 74 214 0.0 0.0 0.00 0.00 0.00 63 1019.0
20260906053054 74 214 0.0 0.0 0.00 0.00 0.00 65 1019.0
20260906052054 73 214 0.0 0.0 0.00 0.00 0.00 65 1018.9
20260906051053 73 214 0.0 0.0 0.00 0.00 0.00 65 1018.9
20260906050053 73 214 0.0 0.0 0.00 0.00 0.00 64 1018.9
20260906045053 73 205 0.0 0.0 0.00 0.00 0.00 62 1018.9
20260906044053 73 204 0.0 0.0 0.00 0.00 0.00 62 1018.8
20260906043053 73 199 0.0 3.0 0.00 0.00 0.00 62 1018.8
20260906042052 73 207 0.0 2.0 0.00 0.00 0.00 62 1018.9
20260906041053 73 205 0.0 0.0 0.00 0.00 0.00 62 1018.7
20260906040052 73 210 0.0 0.0 0.00 0.00 0.00 61 1018.6
20260906035052 73 203 0.0 0.0 0.00 0.00 0.00 61 1018.5
20260906034052 73 209 0.0 0.0 0.00 0.00 0.00 61 1018.4
20260906033052 73 213 0.0 0.0 0.00 0.00 0.00 61 1018.3
20260906032052 73 207 0.0 0.0 0.00 0.00 0.00 61 1018.3
20260906031051 73 209 0.0 0.0 0.00 0.00 0.00 60 1018.3
20260906030051 74 210 0.0 3.0 0.00 0.00 0.00 61 1018.3
20260906025051 74 208 0.0 0.0 0.00 0.00 0.00 60 1018.3
20260906024051 74 200 0.0 3.0 0.00 0.00 0.00 60 1018.4
20260906023051 74 207 0.0 0.0 0.00 0.00 0.00 60 1018.5
20260906022051 74 214 0.0 4.0 0.00 0.00 0.00 61 1018.5
20260906021050 74 211 1.0 1.0 0.00 0.00 0.00 62 1018.5
20260906020050 74 207 0.0 0.0 0.00 0.00 0.00 64 1018.5
20260906015050 74 205 0.0 0.0 0.00 0.00 0.00 64 1018.5
20260906014053 74 192 1.0 2.0 0.00 0.00 0.00 64 1018.5
20260906013050 74 165 2.0 3.0 0.00 0.00 0.00 65 1018.5
20260906012050 74 189 0.0 3.0 0.00 0.00 0.00 66 1018.4
20260906011049 74 213 0.0 2.0 0.00 0.00 0.00 67 1018.5
20260906010049 75 155 1.0 3.0 0.00 0.00 0.00 68 1018.4
20260906005049 74 157 0.0 3.0 0.00 0.00 0.00 69 1018.4
20260906004049 74 161 0.0 0.0 0.00 0.00 0.00 69 1018.5
20260906003049 75 190 0.0 0.0 0.00 0.00 0.00 70 1018.5
20260906002049 75 188 0.0 0.0 0.00 0.00 0.00 70 1018.5
20260906001049 76 190 0.0 0.0 0.00 0.00 0.00 71 1018.5
20260906000048 76 182 0.0 2.0 0.00 0.00 0.00 71 1018.6
20260905235108 75 207 0.0 0.0 0.00 0.00 0.00 72 1018.8
20260905234048 76 207 0.0 0.0 0.00 0.00 0.00 73 1018.8
20260905233048 76 201 0.0 0.0 0.00 0.00 0.00 74 1018.8
20260905232048 76 200 0.0 0.0 0.00 0.00 0.00 74 1018.9
20260905231048 76 200 0.0 0.0 0.00 0.00 0.00 74 1018.8
20260905230047 76 198 0.0 0.0 0.00 0.00 0.00 75 1018.8
20260905225049 77 198 0.0 0.0 0.00 0.00 0.00 75 1018.8
20260905224047 77 196 0.0 0.0 0.00 0.00 0.00 74 1018.9
20260905223047 77 196 0.0 0.0 0.00 0.00 0.00 75 1018.9
20260905222047 77 195 0.0 0.0 0.00 0.00 0.00 75 1018.9
20260905221047 78 195 0.0 0.0 0.00 0.00 0.00 74 1018.8
20260905220048 77 195 0.0 0.0 0.00 0.00 0.00 74 1018.9
20260905215046 78 195 0.0 0.0 0.00 0.00 0.00 74 1018.9
20260905214046 78 195 0.0 0.0 0.00 0.00 0.00 74 1019.0
20260905213046 78 195 0.0 0.0 0.00 0.00 0.00 74 1019.0
20260905212046 78 186 0.0 0.0 0.00 0.00 0.00 73 1018.9
20260905211046 78 184 0.0 0.0 0.00 0.00 0.00 73 1018.9
20260905210046 78 184 0.0 0.0 0.00 0.00 0.00 73 1019.0
20260905205045 79 184 0.0 0.0 0.00 0.00 0.00 73 1018.9
20260905204046 78 185 0.0 0.0 0.00 0.00 0.00 73 1018.9
20260905203045 78 179 0.0 2.0 0.00 0.00 0.00 72 1019.0
20260905202048 78 157 0.0 0.0 0.00 0.00 0.00 71 1019.0
20260905201045 79 157 0.0 0.0 0.00 0.00 0.00 71 1019.0
20260905200045 80 149 0.0 0.0 0.00 0.00 0.00 70 1018.9
20260905195044 80 171 0.0 0.0 0.00 0.00 0.00 71 1019.1
20260905194044 79 171 0.0 0.0 0.00 0.00 0.00 71 1019.1
20260905193104 80 171 0.0 0.0 0.00 0.00 0.00 71 1019.1
20260905192044 80 171 0.0 0.0 0.00 0.00 0.00 70 1018.9
20260905191044 81 171 0.0 0.0 0.00 0.00 0.00 70 1018.8
20260905190044 81 298 0.0 0.0 0.00 0.00 0.00 71 1018.7
20260905185043 81 298 0.0 0.0 0.00 0.00 0.00 71 1018.6
20260905184043 81 298 0.0 0.0 0.00 0.00 0.00 70 1018.5
20260905183043 82 298 0.0 0.0 0.00 0.00 0.00 70 1018.5
20260905182043 82 298 0.0 0.0 0.00 0.00 0.00 70 1018.3
20260905181103 82 298 0.0 0.0 0.00 0.00 0.00 69 1018.2
20260905180043 83 298 0.0 0.0 0.00 0.00 0.00 69 1018.1
20260905175043 83 298 0.0 0.0 0.00 0.00 0.00 69 1018.1
20260905174042 83 298 0.0 0.0 0.00 0.00 0.00 68 1018.1
20260905173042 84 298 0.0 0.0 0.00 0.00 0.00 68 1018.0
20260905172042 84 298 0.0 0.0 0.00 0.00 0.00 67 1018.0
20260905171042 84 311 0.0 0.0 0.00 0.00 0.00 66 1018.0
20260905170042 84 315 0.0 3.0 0.00 0.00 0.00 66 1018.0
20260905165042 85 333 0.0 0.0 0.00 0.00 0.00 64 1017.9
20260905164102 86 319 0.0 3.0 0.00 0.00 0.00 61 1017.9
20260905163041 86 305 0.0 5.0 0.00 0.00 0.00 63 1018.0
20260905162041 86 351 0.0 3.0 0.00 0.00 0.00 62 1018.0
20260905161046 85 355 5.0 7.0 0.00 0.00 0.00 62 1018.1
20260905160041 87 342 3.0 6.0 0.00 0.00 0.00 62 1018.1
20260905155041 86 326 2.0 5.0 0.00 0.00 0.00 63 1018.0
20260905154040 86 348 2.0 7.0 0.00 0.00 0.00 61 1018.0
20260905153041 87 15 4.0 5.0 0.00 0.00 0.00 61 1018.0
20260905152040 87 327 1.0 6.0 0.00 0.00 0.00 59 1018.0
20260905151040 87 331 2.0 8.0 0.00 0.00 0.00 59 1017.9
20260905150040 87 271 0.0 7.0 0.00 0.00 0.00 57 1018.0
20260905145040 89 295 2.0 3.0 0.00 0.00 0.00 53 1017.9
20260905144040 88 355 3.0 3.0 0.00 0.00 0.00 52 1017.9
20260905143039 89 22 1.0 6.0 0.00 0.00 0.00 48 1017.9
20260905142039 89 300 0.0 6.0 0.00 0.00 0.00 44 1018.0
20260905141039 89 342 2.0 3.0 0.00 0.00 0.00 43 1018.0
20260905140039 89 306 0.0 4.0 0.00 0.00 0.00 49 1018.1
20260905135039 88 242 3.0 4.0 0.00 0.00 0.00 50 1018.0
20260905134039 89 242 0.0 3.0 0.00 0.00 0.00 51 1018.1
20260905133038 89 344 2.0 5.0 0.00 0.00 0.00 53 1018.2
20260905132038 87 265 4.0 5.0 0.00 0.00 0.00 58 1018.3
20260905131038 88 317 5.0 6.0 0.00 0.00 0.00 54 1018.3
20260905130038 88 241 0.0 3.0 0.00 0.00 0.00 57 1018.4
20260905125038 88 316 0.0 8.0 0.00 0.00 0.00 54 1018.6
20260905124038 89 302 3.0 3.0 0.00 0.00 0.00 57 1018.6
20260905123038 88 289 0.0 3.0 0.00 0.00 0.00 55 1018.6
20260905122038 87 315 3.0 3.0 0.00 0.00 0.00 61 1018.5
20260905121037 87 333 4.0 4.0 0.00 0.00 0.00 59 1018.6
20260905120037 87 15 0.0 6.0 0.00 0.00 0.00 61 1018.7
20260905115037 86 360 3.0 5.0 0.00 0.00 0.00 61 1018.8
20260905114037 88 305 2.0 3.0 0.00 0.00 0.00 57 1018.9
20260905113037 87 243 0.0 4.0 0.00 0.00 0.00 58 1018.9
20260905112057 86 284 0.0 3.0 0.00 0.00 0.00 59 1018.9
20260905111036 86 342 6.0 6.0 0.00 0.00 0.00 58 1019.0
20260905110040 87 267 0.0 4.0 0.00 0.00 0.00 61 1018.9
20260905105036 86 271 0.0 5.0 0.00 0.00 0.00 60 1018.9
20260905104036 86 5 3.0 7.0 0.00 0.00 0.00 60 1018.8
20260905103036 86 325 1.0 7.0 0.00 0.00 0.00 62 1018.9
20260905102036 86 311 5.0 5.0 0.00 0.00 0.00 58 1018.8
20260905101036 86 294 3.0 3.0 0.00 0.00 0.00 57 1018.9
20260905100037 86 260 2.0 5.0 0.00 0.00 0.00 58 1018.8
20260905095035 86 339 3.0 6.0 0.00 0.00 0.00 56 1018.8
20260905094035 86 226 0.0 4.0 0.00 0.00 0.00 54 1018.9
20260905093035 86 301 0.0 2.0 0.00 0.00 0.00 55 1018.9
20260905092035 87 280 4.0 5.0 0.00 0.00 0.00 51 1018.9
20260905091034 86 276 3.0 3.0 0.00 0.00 0.00 50 1018.8
20260905090034 86 275 3.0 4.0 0.00 0.00 0.00 53 1018.9
20260905085034 86 256 0.0 3.0 0.00 0.00 0.00 51 1018.9
20260905084034 85 28 0.0 3.0 0.00 0.00 0.00 58 1018.9